ARIANE 2 DEB, 27649

Orbit data source: Space-Track

ARIANE 2 DEB, 27649 is space debris in HEO originally from a launch on Fri, 27 Jan 1989 UTC launched from the French Guiana (FRGUI). Debris objects in space refer to the collection of defunct objects orbiting the Earth. Examples of debris include non-operational satellites, rocket bodies, and fragments generated from explosions, collisions, or faulty payload assembly.

Loading next visibility...
ARIANE 2 DEB details
Identifier
27649, 1989-006AD
Orbit
HEO
Last TLE update14 hours ago
Origin
Flag of FRArianespace (FR)
ManufacturerEADS/LV
MissionSpacecraft
Bus & MotorUnknown
MassUnknown
Launch date (UTC)
1989-01-27 (36 years ago)
Launch vehicleUnknown
Launch site
French Guiana (FRGUI)
Object type
Payload
Rocket body
Debris
Shape & HBRUnknown
Radar Cross SectionMedium (>0.1 m² and <1 m²)

Expand to show TLE details & history

TLE from 14 hours ago
0 ARIANE 2 DEB
1 27649U 89006AD  25018.41913247 -.00000088  00000-0  00000-0 0  9995
2 27649   8.5163  22.9556 6988822 204.3349 127.5206  2.22935135 94356
Epoch: 2025-01-18T10:03Z
Definitive object data (Epoch: 2025-01-18T10:03:33.045Z)
Latitude1.57719°
Longitude124.63979°
Altitude33,084.369 km
Speed2.024 km/s
True Right ascension02h 14m 23s
True Declination1° 34' 32"
Sunlit
Object was in daylight at TLE epoch
Visualization TLE readout
Latitude5.60247°
Longitude154.64564°
Altitude32,032.642 km
Speed2.157 km/s
Apparent Right ascension04h 37m 35s
Apparent Declination0° 31' 55"
Sunlit
Object is in daylight
Visualization observer readout
Local Sidereal Time01:09:33
Azimuth117.03° SE
Elevation27.783°
Doppler factor1
Orbital elements
Apogee altitude35,681.18 km
Perigee altitude1,076.652 km
Semi-major axis24,757.053 km
Eccentricity0.6988822
Inclination8.5163°
RAAN22.9556°
Arg. of periapsis204.3349°
True anomaly166.44131°
Mean anomaly127.5206°
Eccentric anomaly148.46429°
Mean motion0.55718 °/min
BSTARUnknown
Orbital period646.11 mins
Loading maneuver chart data...
Loading historical data...
Loading historical data...
Loading historical data...
Loading historical data...
Loading historical data...
Loading historical data...
Loading historical data...

ARIANE 2 DEB Visibility forecast

Observer location: undefined°, undefined

Span
Click to sort rows by Start time (UTC) header in descending order
Start Az.
Max El. time (UTC)
Max El. Az.
Max El.
End time (UTC)
End Az.
158 mins2025-01-19 00:15:25.152Z117.047° SE2025-01-19 01:17:25.152Z119.43° SE26.537°2025-01-19 02:53:25.152Z106.186° ESE
|